Flag for Germany Weather past 2 weeks in Bad Hersfeld, Hesse, Germany

Now
37 °F

Light rain. Mostly cloudy.


Feels Like: 33 °F
Forecast: 33 / 43 °F
Wind: 6 mph from West

Location: Fritzlar Airport

Current Time: Mar 4, 2015 at 1:40:46 AM

Latest Report: Mar 4, 2015 at 12:20 AM


Visibility: N/A

Pressure: 30.07 "Hg

Humidity: 87%

Dew point: 34 °F

Location of Bad HersfeldLocation

Historic Weather in Bad Hersfeld — Graph

°F

Bad Hersfeld temperature yesterday

Maximum temperature yesterday: 48 °F (at 3:20 PM)
Minimum temperature yesterday: 32 °F (at 6:20 AM)
Average temperature yesterday: 39 °F

Past Weeks' High & Low Weather Summary

 TemperatureHumidityPressure
High50 °F (Mar 1, 4:20 PM)100% (Feb 18, 8:58 AM)30.74 "Hg (Feb 18, 8:58 AM)
Low28 °F (Feb 28, 7:20 AM)43% (Mar 2, 2:20 PM)29.39 "Hg (Feb 21, 7:20 AM)
Average38 °F80%29.94 "Hg
* Reported Feb 17 12:20 AM — Mar 4 12:20 AM, Bad Hersfeld, Weather by CustomWeather, © 2015

Note: Actual official high and low records may vary slightly from our data, if they occured in-between our weather recording intervals... More about our weather records

Advertising

Bad Hersfeld weather history for previous 24 hours

 ConditionsComfort  
Time TempWeatherWind HumidityBarometerVisibility
12:20 AM
Wed, Mar 4
37 °FLight rain. Mostly cloudy.6 mph87%30.07 "HgN/A
11:20 PM
Tue, Mar 3
37 °FPassing clouds.6 mph87%30.04 "HgN/A
10:20 PM39 °FPassing clouds.8 mph81%30.04 "HgN/A
9:20 PM37 °FPassing clouds.6 mph87%30.01 "HgN/A
8:20 PM37 °FMostly cloudy.8 mph87%30.01 "HgN/A
7:59 PM37 °FLight rain. Passing clouds.9 mph93%29.98 "HgN/A
7:20 PM43 °FLight rain. Partly cloudy.12 mph76%29.98 "HgN/A
6:20 PM45 °FLight rain. Partly cloudy.15 mph66%29.95 "HgN/A
5:20 PM46 °FLight rain. Partly sunny.13 mph57%29.95 "HgN/A
4:20 PM46 °FLight rain. Broken clouds.14 mph57%29.95 "HgN/A
3:20 PM48 °FBroken clouds.16 mph54%29.98 "HgN/A
2:20 PM46 °FBroken clouds.18 mph53%30.01 "HgN/A
1:20 PM46 °FScattered clouds.16 mph53%30.04 "HgN/A
12:20 PM45 °FPassing clouds.14 mph61%30.07 "HgN/A
11:20 AM41 °FPassing clouds.13 mph70%30.07 "HgN/A
10:20 AM39 °FScattered clouds.14 mph75%30.09 "HgN/A
9:20 AM36 °FScattered clouds.10 mph81%30.09 "HgN/A
8:20 AM34 °FPassing clouds.10 mph87%30.07 "HgN/A
7:20 AM32 °FPassing clouds.10 mph87%30.07 "HgN/A
6:20 AM32 °FPassing clouds.10 mph87%30.04 "HgN/A
5:20 AM36 °FPassing clouds.14 mph75%30.04 "HgN/A
4:20 AM36 °FPassing clouds.9 mph75%30.04 "HgN/A
3:20 AM36 °FPassing clouds.8 mph75%30.01 "HgN/A
2:20 AM36 °FChilly.6 mph75%30.01 "HgN/A
1:20 AM36 °FPassing clouds.9 mph70%29.98 "HgN/A
Weather by CustomWeather, © 2015

See weather overviewHow to use our weather pages